Ana Sayfa
METAR-TAF:

METAR-TAF

Havaalanları :

Perryton Ochiltree County Airport

Perryton, Teksas, Amerika Birleşik Devletleri

Enlem: 36-24N, Boylam: 100-44W, yükseklik: 890 m

Güncel hava durumu gözlemi

Rapor saat 20:35 UTC de 10 dakika önce yapıldı.
Rüzgar güney/güneydoğudan 20 kt ve 25 kt'a kadar ani rüzgarlar
Sıcaklık 31°C
Nem 22%
Basınç 1019 hPa
Görüş mesafesi: 16.1 km
Açık gökyüzü

METAR: KPYX 312035Z AUTO 16020G25KT 10SM CLR 31/07 A3009 RMK AO2 T03140065

Saat: 15:45 (20:45 UTC)


TAF: eksik

4.000'den fazla havaalanı için hava durumu gözlemleri ve tahminleri (METAR ve TAF raporları).

Kullanılabilir istasyonlar harita üzerinde sarı ve kırmızı noktalarla gösterilir.

İstasyonun adını görmek için fareyi noktanın üzerinde gezdirin.

Sonrasında hava gözlem ve tahminlerini görmek için tıklayın.

Haritayı değiştirmek için: yaklaştırmak için siyah artı işaretli yeşil düğmeye ve uzaklaştırmak için de eksi işaretli düğmeye hızla tıklayın; bitişik haritalar için yeşil okları kullanın.


METAR-TAF: